Observations
| Time | Sensor | AQI | SAQ | Temp °C | Hum % | Pres Pa | CO μg/m³ | H₂S μg/m³ | NO μg/m³ | NO₂ μg/m³ | O₃ μg/m³ | SO₂ μg/m³ | CO₂e PPM | VOC PPM | PM1 μg/m³ | PM2.5 μg/m³ | PM4 μg/m³ | PM10 μg/m³ | TPS µm |
|---|---|---|---|---|---|---|---|---|---|---|---|---|---|---|---|---|---|---|---|
| Tuesday 11 August 2026 | |||||||||||||||||||
| 05:17 | Trim Market St | 2 | 12.6 | 75 | 47,428 | 0.36 | 0 | 3.86 | 11.46 | 31.38 | 0 | 2.85 | 4.27 | 7.53 | |||||
| 05:16 | Trim Patrick St | 1 | 11.1 | 82 | 38,460 | 0.39 | 2.23 | 4.21 | 25.7 | 4.61 | 0 | 5.43 | 8.61 | 9.47 | |||||
| 05:16 | Trim Market St | 2 | 12.6 | 75 | 47,448 | 0.38 | 0 | 3.86 | 11.89 | 31.74 | 0 | 1.43 | 3.79 | 6.33 | |||||
| 05:15 | Trim Patrick St | 1 | 11.1 | 82 | 38,460 | 0.39 | 1.17 | 4.2 | 23.41 | 3.97 | 0 | 5.43 | 10 | 11 | |||||
| 05:15 | Trim Market St | 2 | 12.6 | 75 | 47,434 | 0.37 | 0 | 3.86 | 11.67 | 31.19 | 0 | 0.71 | 2.83 | 5.73 | |||||
| 05:14 | Trim Patrick St | 1 | 11.2 | 82 | 38,460 | 0.38 | 1.31 | 4.15 | 21.94 | 7.33 | 0 | 4.57 | 9.3 | 10.23 | |||||
| 05:14 | Trim Market St | 2 | 12.6 | 75 | 47,414 | 0.38 | 0 | 3.86 | 11.89 | 31.02 | 0 | 0.71 | 2.83 | 5.14 | |||||
| 05:13 | Trim Patrick St | 1 | 11.1 | 82 | 38,460 | 0.39 | 1.33 | 4.13 | 21.33 | 7.11 | 0 | 4.57 | 7.91 | 8.7 | |||||
| 05:13 | Trim Market St | 2 | 12.6 | 75 | 47,358 | 0.37 | 0 | 3.86 | 11.57 | 31.91 | 0 | 1.43 | 2.83 | 5.14 | |||||
| 05:12 | Trim Patrick St | 1 | 11.1 | 82 | 38,460 | 0.39 | 1.38 | 4.12 | 23.05 | 5.73 | 0 | 3.71 | 7.21 | 7.94 | |||||
| 05:12 | Trim Market St | 2 | 12.6 | 75 | 47,274 | 0.38 | 0 | 3.86 | 12 | 29.81 | 0 | 0.71 | 2.83 | 5.14 | |||||
| 05:11 | Trim Patrick St | 1 | 11.2 | 82 | 38,460 | 0.39 | 1.38 | 4.03 | 22.28 | 6.42 | 0 | 5.43 | 9.3 | 10.23 | |||||
| 05:10 | Trim Patrick St | 1 | 11.2 | 82 | 38,460 | 0.38 | 1.43 | 4 | 23.35 | 5.47 | 0 | 3.71 | 7.21 | 7.94 | |||||
| 05:09 | Trim Patrick St | 1 | 11.2 | 82 | 38,460 | 0.39 | 2.26 | 3.97 | 27.76 | 3.56 | 0 | 4.57 | 8.61 | 9.47 | |||||
| 05:08 | Trim Patrick St | 1 | 11.2 | 82 | 38,460 | 0.39 | 1.82 | 4.01 | 27.76 | 4.38 | 0 | 4.57 | 9.3 | 10.23 | |||||
| 05:07 | Trim Patrick St | 1 | 11.2 | 82 | 38,460 | 0.39 | 1.36 | 4.04 | 25.65 | 4.45 | 0 | 5.43 | 8.61 | 9.47 | |||||
| 05:06 | Trim Market St | 2 | 12.7 | 75 | 46,893 | 0.37 | 0 | 3.8 | 12.1 | 31.56 | 0 | 2.85 | 3.79 | 7.53 | |||||
| 05:05 | Trim Patrick St | 1 | 11.2 | 81 | 38,460 | 0.39 | 3.06 | 4.06 | 36.51 | 0 | 0 | 3.71 | 7.22 | 7.94 | |||||
| 05:04 | Trim Market St | 2 | 12.7 | 75 | 46,717 | 0.38 | 0 | 3.79 | 12.47 | 31.44 | 0 | 2.14 | 3.79 | 8.13 | |||||
| 05:04 | Trim Patrick St | 1 | 11.2 | 81 | 38,460 | 0.39 | 2.44 | 4.04 | 30.33 | 2.08 | 0 | 4.57 | 7.92 | 8.71 | |||||